OBJECT AZ, 43805

Orbit data source: Space-Track

You're viewing an Uncataloged Satellite

Recently launched and/or uncataloged satellites may have evolving metadata. Metadata may include but not limited to: Owner, Maufacturer, Bus, Motor, and Mission.

OBJECT AZ, 43805 is a satellite in SSO that was launched on Mon, 03 Dec 2018 UTC via an FALCON 9 launch vehicle from the Air Force Western Test Range (AFWTR). Unknown objects in Earth's orbit typically refer to objects detected orbiting the Earth but have not yet been identified or cataloged. These objects could be anything from previously untracked satellites, spent rocket stages, debris from satellite collisions, or even natural meteoroids temporarily captured by Earth's gravity.

Loading next visibility...
Identifier
43805, 2018-099AZ
Orbit
SSO
Country
Flag of TBDTBD
Related business
Flag of KZAl-Farabi Kazakh National University (KZ)
Manufacturer
Al-Farabi KNU
Mission
Operational Amateur Technology
Bus & Motor
CUBESAT 3U, Unknown motor
Mass
4 kg wet, 4 kg dry
Launch date (UTC)
2018-12-03 (7 years ago)
Launch vehicle
FALCON 9
Launch site
Air Force Western Test Range (AFWTR)
Object type
Unknown
Shape & HBR
Box, 0.1 m
Radar Cross Section
0.035 m², Small (<0.1 m²)

Expand to show TLE details & history
Last TLE update: 18 hours ago

TLE from 18 hours ago
0 OBJECT AZ
1 43805U 18099AZ  26034.17622141  .00093828  00000-0  11895-2 0  9992
2 43805  97.4197 108.3140 0003191 333.9167  26.1928 15.59137721393961
Epoch: 2026-02-03T04:13Z
TLE epoch observation values (Epoch: 2026-02-03T04:13:45.529Z)
Latitude
-0.00004°
Longitude
-88.48661°
Altitude
391.356 km
Speed
7.676 km/s
True Right ascension
07h 13m 15s
True Declination
0° 00' 00"
Sunlit
Object was in full shadow at epoch
Visualization orbit readout
Latitude
Unknown
Longitude
Unknown
Altitude
Unknown
Speed
Unknown
Apparent Right ascension
Unknown
Apparent Declination
Unknown
Sunlit
N/A
Visualization observer readout
Local Sidereal Time
00:37:03
Azimuth
Unknown
Elevation
Unknown
Doppler factor
Unknown
Orbital elements
Apogee altitude
389.225 km
Perigee altitude
384.907 km
Semi-major axis
6,765.203 km
Eccentricity
0.00032
Inclination
97.4197°
RAAN
108.314°
Arg. of periapsis
333.9167°
True anomaly
26.20895°
Mean anomaly
26.1928°
Eccentric anomaly
26.20087°
Mean motion
3.90051 °/min
Orbital period
92.3 mins
BSTAR
0.0011895
Loading maneuver chart data...
Computing Atmospheric mass density...
Loading historical data...
Loading historical data...
Loading historical data...
Loading historical data...
Loading historical data...
Loading historical data...
Loading historical data...

Documentation

Showing up to 5 results
|